Skip Page Navigation
NASA JPL Caltech
NASA Logo - Jet Propulsion Laboratory + View the NASA Portal
+ Near-Earth Object (NEO) Program
Search JPL
JPL Home Earth Solar System Stars & Galaxies Technology
JPL Solar System Dynamics
BODIES ORBITS EPHEMERIDES TOOLS PHYSICAL DATA DISCOVERY FAQ SITE MAP
JPL Small-Body Database Browser
Search: [ help ]  
6133 (1990 RC3)
Classification: Main-belt Asteroid          SPK-ID: 2006133
Ephemeris | Orbit Diagram | Orbital Elements | Physical Parameters | Discovery Circumstances ]

[ show orbit diagram ]
Orbital Elements at Epoch 2457000.5 (2014-Dec-09.0) TDB
Reference: JPL 10 (heliocentric ecliptic J2000)
 Element Value Uncertainty (1-sigma)   Units 
e .1788119757772822 5.624e-08  
a 2.473300342302162 1.3565e-08 AU
q 2.031044621404484 1.3846e-07 AU
i 2.590824580943258 5.966e-06 deg
node 217.2275278980047 0.00011702 deg
peri 66.83489105294332 0.00011792 deg
M 134.9769551280763 1.5828e-05 deg
tp 2456467.814543909720
(2013-Jun-24.31454391)
6.136e-05 JED
period 1420.737073306612
3.89
1.1688e-05
3.2e-08
d
yr
n .253389600907745 2.0846e-09 deg/d
Q 2.91555606319984 1.5991e-08 AU
  Orbit Determination Parameters
   # obs. used (total)      1053  
   data-arc span      13402 days (36.69 yr)  
   first obs. used      1978-07-06  
   last obs. used      2015-03-16  
   planetary ephem.      DE431  
   SB-pert. ephem.      SB431-BIG16  
   condition code      0  
   fit RMS      .51261  
   data source      ORB  
   producer      Otto Matic  
   solution date      2015-Apr-07 16:24:14  

Additional Information
 Earth MOID = 1.01768 AU 
 T_jup = 3.459 
[ show covariance matrix ]

Ephemeris | Orbit Diagram | Orbital Elements | Physical Parameters | Discovery Circumstances ]

Physical Parameter Table
Parameter Symbol Value Units Sigma Reference Notes
absolute magnitude H 14.0 mag n/a MPO265990  

6133 (1990 RC3)          Discovered 1990-Sep-14 by Holt, H. E. at Palomar
Reference: DISCOVERY.DBLast Updated: 2003-08-29

Alternate Designations
 1990 RC3 = 1978 NG2 = 1986 PO6 
Ephemeris | Orbit Diagram | Orbital Elements | Physical Parameters | Discovery Circumstances ]
ABOUT SSD CREDITS/AWARDS PRIVACY/COPYRIGHT GLOSSARY LINKS
FirstGov 2015-Apr-28 03:48 UT
(server date/time)  
NASA Home Page
Site Manager:   Ryan S. Park
Webmaster  Alan B. Chamberlin